Time,TemperatureF,DewpointF,PressureIn,WindDirection,WindDirectionDegrees,WindSpeedMPH,WindSpeedGustMPH,Humidity,HourlyPrecipIn,Conditions,Clouds,dailyrainin,SolarRadiationWatts/m^2,SoftwareType,DateUTC
2013-02-03 00:03:00,33.0,33.0,-100.00,NNW,332,1.0,4.0,99,0.00,,,0.00,0.000000,,2013-02-03 05:03:00,
2013-02-03 00:32:00,33.0,32.0,-100.00,West,271,2.0,6.0,96,0.00,,,0.00,0.000000,,2013-02-03 05:32:00,
2013-02-03 00:42:00,33.0,32.0,-100.00,West,271,2.0,6.0,96,0.00,,,0.00,0.000000,,2013-02-03 05:42:00,
2013-02-03 00:52:00,33.0,32.0,-100.00,West,271,2.0,6.0,96,0.00,,,0.00,0.000000,,2013-02-03 05:52:00,
2013-02-03 01:02:00,33.0,32.0,-100.00,West,271,2.0,6.0,96,0.00,,,0.00,0.000000,,2013-02-03 06:02:00,
2013-02-03 01:32:00,33.0,29.0,-100.00,West,279,6.0,15.0,84,0.00,,,0.00,0.000000,,2013-02-03 06:32:00,
2013-02-03 01:42:00,33.0,29.0,-100.00,West,279,6.0,15.0,84,0.00,,,0.00,0.000000,,2013-02-03 06:42:00,
2013-02-03 01:52:00,33.0,29.0,-100.00,West,279,6.0,15.0,84,0.00,,,0.00,0.000000,,2013-02-03 06:52:00,
2013-02-03 02:02:00,33.0,29.0,-100.00,West,279,6.0,15.0,84,0.00,,,0.00,0.000000,,2013-02-03 07:02:00,
2013-02-03 02:32:00,32.0,26.0,-100.00,West,268,4.0,12.0,79,0.00,,,0.00,0.000000,,2013-02-03 07:32:00,
2013-02-03 02:42:00,32.0,26.0,-100.00,West,268,4.0,12.0,79,0.00,,,0.00,0.000000,,2013-02-03 07:42:00,
2013-02-03 02:52:00,32.0,26.0,-100.00,West,268,4.0,12.0,79,0.00,,,0.00,0.000000,,2013-02-03 07:52:00,
2013-02-03 03:02:00,32.0,26.0,-100.00,West,268,4.0,12.0,79,0.00,,,0.00,0.000000,,2013-02-03 08:02:00,
2013-02-03 03:32:00,31.0,25.0,-100.00,West,274,4.0,11.0,78,0.00,,,0.00,0.000000,,2013-02-03 08:32:00,
2013-02-03 03:42:00,31.0,25.0,-100.00,West,274,4.0,11.0,78,0.00,,,0.00,0.000000,,2013-02-03 08:42:00,
2013-02-03 03:52:00,31.0,25.0,-100.00,West,274,4.0,11.0,78,0.00,,,0.00,0.000000,,2013-02-03 08:52:00,
2013-02-03 04:03:00,31.0,25.0,-100.00,West,274,4.0,11.0,78,0.00,,,0.00,0.000000,,2013-02-03 09:03:00,
2013-02-03 04:32:00,31.0,26.0,-100.00,WNW,293,3.0,7.0,82,0.00,,,0.00,0.000000,,2013-02-03 09:32:00,
2013-02-03 04:42:00,31.0,26.0,-100.00,WNW,293,3.0,7.0,82,0.00,,,0.00,0.000000,,2013-02-03 09:42:00,
2013-02-03 04:52:00,31.0,26.0,-100.00,WNW,293,3.0,7.0,82,0.00,,,0.00,0.000000,,2013-02-03 09:52:00,
2013-02-03 05:01:00,31.0,26.0,-100.00,WNW,293,3.0,7.0,82,0.00,,,0.00,0.000000,,2013-02-03 10:01:00,
2013-02-03 05:32:00,31.0,26.0,-100.00,WNW,287,4.0,10.0,81,0.00,,,0.00,0.000000,,2013-02-03 10:32:00,
2013-02-03 05:42:00,31.0,26.0,-100.00,WNW,287,4.0,10.0,81,0.00,,,0.00,0.000000,,2013-02-03 10:42:00,
2013-02-03 05:53:00,31.0,26.0,-100.00,WNW,287,4.0,10.0,81,0.00,,,0.00,0.000000,,2013-02-03 10:53:00,
2013-02-03 06:02:00,31.0,26.0,-100.00,WNW,287,4.0,10.0,81,0.00,,,0.00,0.000000,,2013-02-03 11:02:00,
2013-02-03 06:32:00,31.0,25.0,-100.00,West,271,2.0,10.0,78,0.00,,,0.00,0.000000,,2013-02-03 11:32:00,
2013-02-03 06:42:00,31.0,25.0,-100.00,West,271,2.0,10.0,78,0.00,,,0.00,0.000000,,2013-02-03 11:42:00,
2013-02-03 06:52:00,31.0,25.0,-100.00,West,271,2.0,10.0,78,0.00,,,0.00,0.000000,,2013-02-03 11:52:00,
2013-02-03 07:02:00,31.0,25.0,-100.00,West,271,2.0,10.0,78,0.00,,,0.00,0.000000,,2013-02-03 12:02:00,
2013-02-03 07:33:00,28.0,27.0,-100.00,ESE,115,1.0,3.0,94,0.00,,,0.00,0.000000,,2013-02-03 12:33:00,
2013-02-03 07:42:00,28.0,27.0,-100.00,ESE,115,1.0,3.0,94,0.00,,,0.00,0.000000,,2013-02-03 12:42:00,
2013-02-03 07:53:00,28.0,27.0,-100.00,ESE,115,1.0,3.0,94,0.00,,,0.00,0.000000,,2013-02-03 12:53:00,
2013-02-03 08:03:00,28.0,27.0,-100.00,ESE,115,1.0,3.0,94,0.00,,,0.00,0.000000,,2013-02-03 13:03:00,
2013-02-03 08:32:00,29.0,28.0,-100.00,SE,145,1.0,4.0,96,0.00,,,0.00,11.000000,,2013-02-03 13:32:00,
2013-02-03 08:42:00,29.0,28.0,-100.00,SE,145,1.0,4.0,96,0.00,,,0.00,11.000000,,2013-02-03 13:42:00,
2013-02-03 08:52:00,29.0,28.0,-100.00,SE,145,1.0,4.0,96,0.00,,,0.00,11.000000,,2013-02-03 13:52:00,
2013-02-03 09:02:00,29.0,28.0,-100.00,SE,145,1.0,4.0,96,0.00,,,0.00,11.000000,,2013-02-03 14:02:00,
2013-02-03 09:32:00,32.0,30.0,-100.00,ESE,119,2.0,6.0,92,0.00,,,0.00,44.000000,,2013-02-03 14:32:00,
2013-02-03 09:42:00,32.0,30.0,-100.00,ESE,119,2.0,6.0,92,0.00,,,0.00,44.000000,,2013-02-03 14:42:00,
2013-02-03 09:52:00,32.0,30.0,-100.00,ESE,119,2.0,6.0,92,0.00,,,0.00,44.000000,,2013-02-03 14:52:00,
2013-02-03 10:03:00,32.0,30.0,-100.00,ESE,119,2.0,6.0,92,0.00,,,0.00,44.000000,,2013-02-03 15:03:00,
2013-02-03 10:33:00,36.0,32.0,-100.00,SE,132,3.0,6.0,86,0.00,,,0.00,194.000000,,2013-02-03 15:33:00,
2013-02-03 10:42:00,36.0,32.0,-100.00,SE,132,3.0,6.0,86,0.00,,,0.00,194.000000,,2013-02-03 15:42:00,
2013-02-03 10:52:00,36.0,32.0,-100.00,SE,132,3.0,6.0,86,0.00,,,0.00,194.000000,,2013-02-03 15:52:00,
2013-02-03 11:03:00,36.0,32.0,-100.00,SE,132,3.0,6.0,86,0.00,,,0.00,194.000000,,2013-02-03 16:03:00,
2013-02-03 11:33:00,43.0,34.0,-100.00,SSW,210,4.0,12.0,71,0.03,,,0.03,582.000000,,2013-02-03 16:33:00,
2013-02-03 11:42:00,43.0,34.0,-100.00,SSW,210,4.0,12.0,71,0.03,,,0.03,582.000000,,2013-02-03 16:42:00,
2013-02-03 11:52:00,43.0,34.0,-100.00,SSW,210,4.0,12.0,71,0.03,,,0.03,582.000000,,2013-02-03 16:52:00,
2013-02-03 12:03:00,43.0,34.0,-100.00,SSW,210,4.0,12.0,71,0.03,,,0.03,582.000000,,2013-02-03 17:03:00,
2013-02-03 12:32:00,41.0,31.0,-100.00,NW,308,7.0,19.0,68,0.16,,,0.19,573.000000,,2013-02-03 17:32:00,
2013-02-03 12:42:00,41.0,31.0,-100.00,NW,308,7.0,19.0,68,0.16,,,0.19,573.000000,,2013-02-03 17:42:00,
2013-02-03 12:52:00,41.0,31.0,-100.00,NW,308,7.0,19.0,68,0.16,,,0.19,573.000000,,2013-02-03 17:52:00,
2013-02-03 13:03:00,41.0,31.0,-100.00,NW,308,7.0,19.0,68,0.16,,,0.19,573.000000,,2013-02-03 18:03:00,
2013-02-03 13:33:00,44.0,28.0,-100.00,West,261,7.0,20.0,54,0.14,,,0.33,717.000000,,2013-02-03 18:33:00,
2013-02-03 13:42:00,44.0,28.0,-100.00,West,261,7.0,20.0,54,0.14,,,0.33,717.000000,,2013-02-03 18:42:00,
2013-02-03 13:52:00,44.0,28.0,-100.00,West,261,7.0,20.0,54,0.14,,,0.33,717.000000,,2013-02-03 18:52:00,
2013-02-03 14:03:00,44.0,28.0,-100.00,West,261,7.0,20.0,54,0.14,,,0.33,717.000000,,2013-02-03 19:03:00,
2013-02-03 14:33:00,42.0,25.0,-100.00,NNW,330,10.0,22.0,50,0.01,,,0.34,708.000000,,2013-02-03 19:33:00,
2013-02-03 14:42:00,42.0,25.0,-100.00,NNW,330,10.0,22.0,50,0.01,,,0.34,708.000000,,2013-02-03 19:42:00,
2013-02-03 14:52:00,42.0,25.0,-100.00,NNW,330,10.0,22.0,50,0.01,,,0.34,708.000000,,2013-02-03 19:52:00,
2013-02-03 15:02:00,42.0,25.0,-100.00,NNW,330,10.0,22.0,50,0.01,,,0.34,708.000000,,2013-02-03 20:02:00,
2013-02-03 15:33:00,42.0,25.0,-100.00,West,275,8.0,16.0,51,0.00,,,0.34,541.000000,,2013-02-03 20:33:00,
2013-02-03 15:42:00,42.0,25.0,-100.00,West,275,8.0,16.0,51,0.00,,,0.34,541.000000,,2013-02-03 20:42:00,
2013-02-03 15:52:00,42.0,25.0,-100.00,West,275,8.0,16.0,51,0.00,,,0.34,541.000000,,2013-02-03 20:52:00,
2013-02-03 16:03:00,42.0,25.0,-100.00,West,275,8.0,16.0,51,0.00,,,0.34,541.000000,,2013-02-03 21:03:00,
2013-02-03 16:33:00,45.0,28.0,-100.00,WNW,302,8.0,15.0,51,0.00,,,0.34,330.000000,,2013-02-03 21:33:00,
2013-02-03 16:42:00,45.0,28.0,-100.00,WNW,302,8.0,15.0,51,0.00,,,0.34,330.000000,,2013-02-03 21:42:00,
2013-02-03 16:52:00,45.0,28.0,-100.00,WNW,302,8.0,15.0,51,0.00,,,0.34,330.000000,,2013-02-03 21:52:00,
2013-02-03 17:02:00,45.0,28.0,-100.00,WNW,302,8.0,15.0,51,0.00,,,0.34,330.000000,,2013-02-03 22:02:00,
2013-02-03 17:32:00,44.0,22.0,-100.00,WNW,290,8.0,21.0,42,0.00,,,0.34,293.000000,,2013-02-03 22:32:00,
2013-02-03 17:42:00,44.0,22.0,-100.00,WNW,290,8.0,21.0,42,0.00,,,0.34,293.000000,,2013-02-03 22:42:00,
2013-02-03 17:52:00,44.0,22.0,-100.00,WNW,290,8.0,21.0,42,0.00,,,0.34,293.000000,,2013-02-03 22:52:00,
2013-02-03 18:02:00,44.0,22.0,-100.00,WNW,290,8.0,21.0,42,0.00,,,0.34,293.000000,,2013-02-03 23:02:00,
2013-02-03 18:33:00,40.0,21.0,-100.00,WNW,286,3.0,14.0,47,0.00,,,0.34,31.000000,,2013-02-03 23:33:00,
2013-02-03 18:42:00,40.0,21.0,-100.00,WNW,286,3.0,14.0,47,0.00,,,0.34,31.000000,,2013-02-03 23:42:00,
2013-02-03 18:52:00,40.0,21.0,-100.00,WNW,286,3.0,14.0,47,0.00,,,0.34,31.000000,,2013-02-03 23:52:00,
2013-02-03 19:02:00,40.0,21.0,-100.00,WNW,286,3.0,14.0,47,0.00,,,0.34,31.000000,,2013-02-04 00:02:00,
2013-02-03 19:32:00,39.0,22.0,-100.00,West,281,5.0,15.0,51,0.00,,,0.34,1.000000,,2013-02-04 00:32:00,
2013-02-03 19:42:00,39.0,22.0,-100.00,West,281,5.0,15.0,51,0.00,,,0.34,1.000000,,2013-02-04 00:42:00,
2013-02-03 19:52:00,39.0,22.0,-100.00,West,281,5.0,15.0,51,0.00,,,0.34,1.000000,,2013-02-04 00:52:00,
2013-02-03 20:01:00,39.0,22.0,-100.00,West,281,5.0,15.0,51,0.00,,,0.34,1.000000,,2013-02-04 01:01:00,
2013-02-03 20:32:00,36.0,23.0,-100.00,North,351,6.0,13.0,58,0.00,,,0.34,0.000000,,2013-02-04 01:32:00,
2013-02-03 20:42:00,36.0,23.0,-100.00,North,351,6.0,13.0,58,0.00,,,0.34,0.000000,,2013-02-04 01:42:00,
2013-02-03 20:52:00,36.0,23.0,-100.00,North,351,6.0,13.0,58,0.00,,,0.34,0.000000,,2013-02-04 01:52:00,
2013-02-03 21:02:00,36.0,23.0,-100.00,North,351,6.0,13.0,58,0.00,,,0.34,0.000000,,2013-02-04 02:02:00,
2013-02-03 21:32:00,33.0,23.0,-100.00,North,352,9.0,22.0,65,0.00,,,0.34,0.000000,,2013-02-04 02:32:00,
2013-02-03 21:42:00,33.0,23.0,-100.00,North,352,9.0,22.0,65,0.00,,,0.34,0.000000,,2013-02-04 02:42:00,
2013-02-03 21:52:00,33.0,23.0,-100.00,North,352,9.0,22.0,65,0.00,,,0.34,0.000000,,2013-02-04 02:52:00,
2013-02-03 22:02:00,33.0,23.0,-100.00,North,352,9.0,22.0,65,0.00,,,0.34,0.000000,,2013-02-04 03:02:00,
2013-02-03 22:32:00,31.0,22.0,-100.00,NNW,327,6.0,20.0,70,0.00,,,0.34,0.000000,,2013-02-04 03:32:00,
2013-02-03 22:42:00,31.0,22.0,-100.00,NNW,327,6.0,20.0,70,0.00,,,0.34,0.000000,,2013-02-04 03:42:00,
2013-02-03 22:52:00,31.0,22.0,-100.00,NNW,327,6.0,20.0,70,0.00,,,0.34,0.000000,,2013-02-04 03:52:00,
2013-02-03 23:02:00,31.0,22.0,-100.00,NNW,327,6.0,20.0,70,0.00,,,0.34,0.000000,,2013-02-04 04:02:00,
2013-02-03 23:32:00,30.0,22.0,-100.00,NNW,333,7.0,18.0,73,0.00,,,0.34,0.000000,,2013-02-04 04:32:00,
2013-02-03 23:42:00,30.0,22.0,-100.00,NNW,333,7.0,18.0,73,0.00,,,0.34,0.000000,,2013-02-04 04:42:00,
2013-02-03 23:52:00,30.0,22.0,-100.00,NNW,333,7.0,18.0,73,0.00,,,0.34,0.000000,,2013-02-04 04:52:00,